Volver al catálogo

CZ-2D R/B

ActivoLEO
NORAD 54215·ROCKET BODY·🇨🇳 China

Lanzado Oct 29, 2022 desde Jiuquan Satellite Launch Center

Loading…

Próximos Pases (próximas 24 horas)

TLE

ActualizadoSource: Space-Track

Época: Sep 14, 2026, 14:47 UTC

1 54215U 22142B   26257.61649061 -.00000050  00000-0  31306-4 0  9996
2 54215  59.9017 313.8229 0028376   3.9924 356.1334 14.34388292203173

Sigue CZ-2D R/B en tiempo real con AllMySat

Download on the App Store